Decatur, IL

1:00 PM CDT on June 25, 2017 (GMT -0500)
Decatur

Weather History for KDEC - December, 2013

Change the Weather History Date:

Saturday, December 21, 2013

  Actual Average Record
Temperature  
Mean Temperature 34 °F 29 °F  
Max Temperature 36 °F 37 °F 61 °F (2015)
Min Temperature 32 °F 21 °F 1 °F (2000)
Degree Days  
Heating Degree Days 31 36  
Month to date heating degree days 740 693  
Since 1 July heating degree days 1888 1774  
Cooling Degree Days 0 0  
Month to date cooling degree days 0 0  
Year to date cooling degree days 1079 1048  
Moisture  
Dew Point 31 °F    
Average Humidity 93    
Maximum Humidity 100    
Minimum Humidity 85    
Precipitation  
Precipitation 0.93 in 0.09 in 0.93 in (2013)
Month to date precipitation 1.50 1.64  
Year to date precipitation 33.52 37.55  
Sea Level Pressure  
Sea Level Pressure 29.75 in    
Wind  
Wind Speed 10 mph (North)    
Max Wind Speed 21 mph    
Max Gust Speed 24 mph    
Visibility 6 miles    
Events Rain    
T = Trace of Precipitation, MM = Missing Value Source: NWS Daily Summary

Daily Weather History Graph

Daily Weather History Graph

Search for Another Location

Airport or City:

Trip Planner

Search our weather history database for the weather conditions in past years. The results will help you decide how hot, cold, wet, or windy it might be!

Date:

Astronomy

Dec. 21, 2013 Rise Set
Actual Time 7:13 AM CST 4:34 PM CST
Civil Twilight 6:42 AM CST 5:04 PM CST
Nautical Twilight 6:08 AM CST 5:38 PM CST
Astronomical Twilight 5:35 AM CST 6:11 PM CST
Moon 8:50 PM CST (12/21) 9:39 AM CST (12/21)
Length of Visible Light 10h 21m
Length of Day
9h 20m
Waning Gibbous, 84% of the Moon is Illuminated
Dec 21
Waning Gibbous
Dec 25
Last Quarter
Jan 1
New
Jan 7
First Quarter
Jan 15
Full

Hourly Weather History & Observations

Time (CST) Temp. Windchill Dew Point Humidity Pressure Visibility Wind Dir Wind Speed Gust Speed Precip Events Conditions
12:07 AM 33.8 °F 29.6 °F 30.2 °F 87% 29.83 in 5.0 mi West 4.6 mph - N/A   Overcast
12:54 AM 32.0 °F 25.6 °F 30.9 °F 96% 29.83 in 5.0 mi West 6.9 mph - 0.00 in   Overcast
1:08 AM 32.0 °F 26.4 °F 30.2 °F 93% 29.83 in 4.0 mi WSW 5.8 mph - 0.00 in   Overcast
1:23 AM 32.0 °F 26.4 °F 30.2 °F 93% 29.83 in 2.5 mi WSW 5.8 mph - 0.00 in   Overcast
1:32 AM 32.0 °F 26.4 °F 30.2 °F 93% 29.84 in 4.0 mi West 5.8 mph - 0.00 in   Overcast
1:54 AM 32.0 °F 25.6 °F 30.0 °F 92% 29.85 in 4.0 mi West 6.9 mph - 0.00 in   Overcast
2:10 AM 32.0 °F 25.6 °F 30.2 °F 93% 29.85 in 7.0 mi WNW 6.9 mph - 0.01 in   Overcast
2:54 AM 32.0 °F 27.5 °F 30.0 °F 92% 29.83 in 10.0 mi WNW 4.6 mph - 0.01 in   Overcast
3:04 AM 32.0 °F 27.5 °F 30.2 °F 93% 29.82 in 6.0 mi WNW 4.6 mph - 0.02 in   Overcast
3:16 AM 32.0 °F 26.4 °F 30.2 °F 93% 29.79 in 7.0 mi NNW 5.8 mph - 0.02 in   Overcast
3:25 AM 32.0 °F 28.7 °F 30.2 °F 93% 29.80 in 9.0 mi NW 3.5 mph - 0.02 in   Overcast
3:54 AM 32.0 °F 24.8 °F 30.0 °F 92% 29.84 in 7.0 mi WNW 8.1 mph - 0.03 in   Overcast
4:06 AM 32.0 °F 26.4 °F 30.2 °F 93% 29.82 in 7.0 mi WNW 5.8 mph - 0.01 in   Overcast
4:20 AM 32.0 °F 28.7 °F 30.2 °F 93% 29.80 in 6.0 mi North 3.5 mph - 0.03 in   Overcast
4:25 AM 32.0 °F 28.7 °F 30.2 °F 93% 29.80 in 8.0 mi North 3.5 mph - 0.03 in   Overcast
4:39 AM 32.0 °F 27.5 °F 30.2 °F 93% 29.78 in 8.0 mi NE 4.6 mph - 0.04 in   Overcast
4:54 AM 32.0 °F 26.4 °F 28.9 °F 88% 29.81 in 10.0 mi North 5.8 mph - 0.04 in   Overcast
5:18 AM 32.0 °F 24.2 °F 30.2 °F 93% 29.78 in 6.0 mi North 9.2 mph - 0.01 in   Overcast
5:30 AM 32.0 °F 24.8 °F 30.2 °F 93% 29.79 in 5.0 mi North 8.1 mph - 0.03 in Rain Light Freezing Rain
5:39 AM 32.0 °F 25.6 °F 30.2 °F 93% 29.79 in 5.0 mi North 6.9 mph - 0.04 in Rain Light Freezing Rain
5:54 AM 32.0 °F 24.8 °F 30.0 °F 92% 29.82 in 7.0 mi North 8.1 mph - 0.04 in Rain Light Freezing Rain
6:11 AM 32.0 °F 25.6 °F 30.2 °F 93% 29.81 in 7.0 mi NNW 6.9 mph - 0.01 in Rain Light Freezing Rain
6:27 AM 32.0 °F 26.4 °F 30.2 °F 93% 29.81 in 6.0 mi North 5.8 mph - 0.01 in Rain Light Freezing Rain
6:46 AM 32.0 °F 26.4 °F 30.2 °F 93% 29.79 in 8.0 mi NNE 5.8 mph - 0.02 in Rain Light Freezing Rain
6:54 AM 32.0 °F 27.5 °F 30.0 °F 92% 29.82 in 8.0 mi NNE 4.6 mph - 0.02 in   Overcast
7:00 AM 32.0 °F 26.4 °F 30.2 °F 93% 29.79 in 9.0 mi NNE 5.8 mph - 0.00 in Rain Light Freezing Rain
7:47 AM 33.8 °F 28.6 °F 30.2 °F 87% 29.78 in 8.0 mi ENE 5.8 mph - 0.00 in Rain Light Freezing Rain
7:54 AM 33.1 °F 26.9 °F 30.0 °F 89% 29.80 in 8.0 mi NE 6.9 mph - 0.00 in   Overcast
8:40 AM 33.8 °F 29.6 °F 30.2 °F 87% 29.81 in 7.0 mi North 4.6 mph - 0.00 in Rain Light Freezing Rain
8:54 AM 33.1 °F 26.9 °F 30.9 °F 92% 29.82 in 5.0 mi North 6.9 mph - 0.00 in Rain Light Freezing Rain
9:54 AM 33.1 °F 26.9 °F 30.9 °F 92% 29.84 in 5.0 mi North 6.9 mph - 0.03 in Rain Light Freezing Rain
10:04 AM 33.8 °F 28.6 °F 30.2 °F 87% 29.82 in 5.0 mi NNE 5.8 mph - 0.01 in Rain Light Rain
10:11 AM 33.8 °F 27.7 °F 30.2 °F 87% 29.82 in 5.0 mi NNE 6.9 mph - 0.02 in Rain Light Freezing Rain
10:42 AM 33.8 °F 28.6 °F 30.2 °F 87% 29.82 in 4.0 mi NNE 5.8 mph - 0.06 in Rain Light Freezing Rain
10:49 AM 33.8 °F 28.6 °F 30.2 °F 87% 29.82 in 4.0 mi NNE 5.8 mph - 0.08 in Rain Rain
10:54 AM 33.1 °F 26.9 °F 30.9 °F 92% 29.83 in 4.0 mi NNE 6.9 mph - 0.09 in Rain Rain
11:54 AM 34.0 °F 26.6 °F 30.9 °F 89% 29.78 in 7.0 mi NE 9.2 mph - 0.07 in Rain Light Rain
12:54 PM 33.1 °F 26.1 °F 30.9 °F 92% 29.78 in 4.0 mi North 8.1 mph - 0.09 in Rain Light Freezing Rain
1:54 PM 33.1 °F 22.6 °F 30.9 °F 92% 29.70 in 7.0 mi NNE 16.1 mph - 0.04 in Rain Light Freezing Rain
2:40 PM 33.8 °F 24.3 °F 30.2 °F 87% 29.67 in 2.0 mi NNE 13.8 mph - 0.02 in Rain Light Freezing Rain
2:54 PM 33.1 °F 24.4 °F 30.9 °F 92% 29.68 in 2.5 mi NNE 11.5 mph - 0.03 in Rain Rain
3:01 PM 33.8 °F 24.3 °F 30.2 °F 87% 29.66 in 2.5 mi NNE 13.8 mph - 0.01 in Rain Light Freezing Rain
3:54 PM 33.1 °F 23.9 °F 32.0 °F 96% 29.69 in 1.8 mi NNE 12.7 mph - 0.14 in Rain Light Freezing Rain
4:15 PM 33.8 °F 24.8 °F 32.0 °F 93% 29.66 in 2.0 mi NNE 12.7 mph - 0.03 in Rain Light Freezing Rain
4:32 PM 33.8 °F 23.9 °F 32.0 °F 93% 29.67 in 7.0 mi NNE 15.0 mph - 0.05 in Rain Light Rain
4:34 PM 33.8 °F 24.8 °F 32.0 °F 93% 29.68 in 6.0 mi NNE 12.7 mph - 0.05 in Rain Light Freezing Rain
4:54 PM 34.0 °F 25.0 °F 33.1 °F 96% 29.70 in 4.0 mi NNE 12.7 mph - 0.10 in Rain Light Freezing Rain
5:33 PM 33.8 °F 24.8 °F 33.8 °F 100% 29.66 in 5.0 mi NNE 12.7 mph - 0.07 in Rain Light Rain
5:43 PM 33.8 °F 24.3 °F 33.8 °F 100% 29.65 in 6.0 mi NNE 13.8 mph - 0.08 in Rain Light Freezing Rain
5:54 PM 34.0 °F 24.2 °F 33.1 °F 96% 29.66 in 6.0 mi NNE 15.0 mph - 0.08 in Rain Light Freezing Rain
6:20 PM 33.8 °F 23.9 °F 33.8 °F 100% 29.63 in 4.0 mi NNE 15.0 mph 20.7 mph 0.03 in Rain Light Freezing Rain
6:43 PM 33.8 °F 24.3 °F 33.8 °F 100% 29.61 in 6.0 mi NNE 13.8 mph 21.9 mph 0.06 in Rain Light Freezing Rain
6:54 PM 34.0 °F 24.2 °F 33.1 °F 96% 29.64 in 6.0 mi NNE 15.0 mph - 0.07 in Rain Light Freezing Rain
7:54 PM 35.1 °F 25.5 °F 34.0 °F 96% 29.61 in 9.0 mi NNE 15.0 mph - 0.04 in Rain Light Freezing Rain
8:20 PM 35.6 °F 24.5 °F 33.8 °F 93% 29.51 in 10.0 mi NE 20.7 mph - 0.00 in   Overcast
8:54 PM 35.1 °F 26.4 °F 35.1 °F 100% 29.58 in 10.0 mi North 12.7 mph 21.9 mph 0.00 in   Overcast
9:54 PM 35.1 °F 26.4 °F 35.1 °F 100% 29.54 in 9.0 mi NNE 12.7 mph - N/A   Overcast
10:54 PM 36.0 °F 29.0 °F 35.1 °F 97% 29.57 in 5.0 mi North 9.2 mph - 0.00 in Rain Light Rain
11:08 PM 35.6 °F 27.1 °F 35.6 °F 100% 29.56 in 5.0 mi North 12.7 mph - 0.00 in Rain Light Rain
11:54 PM 35.1 °F 26.9 °F 35.1 °F 100% 29.60 in 6.0 mi North 11.5 mph - 0.01 in Rain Light Rain